Reflectivity
-20 -20 -20 -20 -8 11 10 -19 -1 1 13 17 17 13 3 5 8 10 3 -20 16 17 -16 -11 1 8 -11 -4 -1 -9 -9 -20 -6 2 12 9 11 2 -1 -20 -20 -20 -20 -20 -20 -15 -16 -20 -20 -20 -20 -11 -3 -1
-20 -20 -20 -10 -6 9 12 -5 1 13 11 13 16 14 3 4 7 5 14 7 11 19 -17 -20 -18 -20 -9 -20 -16 5 -4 1 12 10 12 8 13 6 -18 7 -20 -20 -20 -20 -20 -1 -20 -20 -20 -19 -13 -2 -1 -0
-20 -20 -10 6 13 7 -5 -2 5 14 5 11 16 15 2 3 -6 3 12 12 15 10 -20 -20 -20 -20 -20 -20 -20 5 -20 -20 2 8 10 12 12 -20 8 -19 -20 -20 -20 -20 -20 -20 -20 -20 -17 -20 -20 -20 -20 -8
-3 -12 -4 6 5 -0 -3 4 11 16 9 9 10 7 6 -11 -17 11 5 -1 14 -2 1 -20 -20 -20 -20 -20 -20 -19 -20 -17 -8 8 5 12 -0 -20 -17 -20 -20 -20 -20 -20 -20 -20 -20 -19 -20 -20 -20 -20 -20 -20
10 5 6 4 1 -1 -4 1 5 17 13 9 5 -3 8 -9 -10 -20 -10 -20 -12 -11 4 -9 -20 -20 -20 -20 -20 -20 -20 -18 6 15 -5 3 -20 -6 -20 -20 -20 -20 -9 -20 -20 -20 -9 -20 -20 -20 -20 -20 -20 -15
10 4 6 5 4 1 -2 7 -10 18 20 1 -15 5 -18 -20 -20 3 9 -20 11 -20 16 -7 -20 -20 -20 -20 -20 -20 -10 -11 1 -4 -4 -4 -6 3 -2 -20 -7 -20 -20 -4 -2 -20 -20 -20 -20 -20 -20 -20 -20 -2
0 -2 4 9 4 3 5 10 15 19 2 -2 1 -20 -20 -19 -2 -5 -19 -8 -15 19 16 5 1 -20 -20 -20 -20 -20 -13 -20 -8 -3 -1 -2 -18 -16 -4 -16 -17 -6 -15 -20 -20 -17 -20 -20 -7 -20 -20 -20 -17 -20
-20 2 3 4 7 4 16 15 17 6 -20 -20 -20 -20 -20 14 -6 5 -20 -20 -6 15 0 -11 -16 -20 -20 -20 -20 -20 -17 -4 -20 -2 -10 -1 -10 -1 -16 -2 -3 -11 -20 -20 -20 -13 -20 -20 -20 -20 -20 -20 -20 -20
-12 10 12 14 11 17 17 15 0 -20 -20 -20 -20 -20 -20 -4 -2 -12 6 -2 -20 -12 9 -11 -12 -20 -20 -20 -20 -20 -19 9 -20 -18 -20 -15 2 -17 1 -4 -20 -20 -14 -20 -20 -20 -20 -20 -20 -20 -20 -20 -20 -20
10 14 17 14 9 15 10 -5 -20 -20 -20 -20 -20 -20 -20 -20 -20 -20 -20 -12 -20 -20 -20 -20 -20 -20 -20 -20 -20 -20 -19 -10 8 -20 -20 -4 2 6 5 4 -1 -8 -20 -20 -20 -20 -20 -20 -20 -20 -20 -20 -20 -20
14 14 11 2 11 -1 -16 -20 -20 -20 -20 -20 -20 -20 1 -20 -20 -20 -20 -20 -20 -20 -20 -20 -20 -20 -20 -20 -19 -19 -16 -17 5 -12 -1 -0 1 0 -1 -1 1 -2 -20 -20 -20 -20 -20 -20 -20 -20 -20 -20 -20 -20
18 12 9 13 -9 -18 -20 -20 -20 -20 -20 -20 -12 -13 -20 -20 -20 -20 -20 -20 -20 -20 -20 -20 -20 -20 -20 -16 -2 -1 -13 -12 -14 -19 -13 -6 2 1 -2 -4 -3 -3 -9 -20 -20 -20 -20 -20 -20 -20 -20 -20 -20 -20
11 11 11 11 4 -20 -19 -8 -19 -20 -20 -20 -20 -20 -20 -20 -20 -20 -20 -20 -20 -20 -20 -20 -20 -20 -20 -20 -20 -20 -2 -7 -18 -17 -4 -0 -0 -5 -6 -6 -20 -5 -3 -20 -20 -20 -20 -20 -20 -20 -20 -20 -20 -20
12 14 14 10 -20 -20 -5 -18 -20 -20 -20 -20 -20 -20 -20 -20 -20 -20 -20 -20 -20 -20 -20 -20 -20 -20 -20 -20 -20 -17 -6 -19 -4 -20 -2 0 -1 -9 -5 -2 -20 -20 -13 -20 -20 -20 -20 -20 -20 -20 -20 -20 -20 -20
14 14 15 -2 -0 -9 -13 -20 -20 -20 -20 -20 -20 -20 -20 -20 -20 -20 -20 -20 -20 -20 -20 -20 -20 -20 -20 -20 -20 -20 -8 -20 -5 -4 -1 2 -3 -4 -4 -7 -20 -16 -20 -6 -4 -20 -20 -20 -20 -20 -20 -20 -20 -20
16 13 -13 -20 -6 -18 -20 -20 -20 -20 -20 -20 -20 -20 -20 -20 -20 -20 -20 -20 -20 -20 -20 -20 -20 -20 -20 -20 -20 -10 -6 -14 -1 0 2 1 -5 -4 -20 -10 -20 -1 -10 -4 -2 -6 -20 -20 -20 -20 -20 -20 -20 -20
17 -17 5 -8 -20 -20 -20 -20 -20 -20 -20 -20 -20 -20 -20 -20 -20 -20 -20 -20 -20 -20 -20 -20 -20 -20 -20 -12 -20 -4 -6 2 -1 2 2 3 -4 -1 -20 -20 -20 -8 -4 -20 -7 -20 -20 -20 -20 -20 -20 -20 -20 -20
-2 -6 -20 -20 -20 -20 -20 -20 -20 -20 -20 -20 -20 -20 -20 -20 -20 -20 -20 -20 -20 -20 -20 -20 -20 -20 -17 -19 -5 -2 -2 -0 2 2 1 -1 -20 -20 -20 -7 -20 -19 -2 -8 -20 -20 6 -18 -4 -15 -11 0 -17 -4
-19 -20 -20 -20 -20 -20 -20 -20 -20 -20 -20 -20 -20 -11 -20 -20 -20 -20 -20 -20 -20 -20 -20 -20 -20 -20 -4 -0 -3 -5 -2 -0 1 0 1 4 -20 -20 -20 -15 -13 -9 -3 -2 -13 -2 5 -14 -3 0 -5 4 -3 -3
-20 -20 -20 -20 -20 -20 -20 -20 -20 -20 -20 -20 -20 -20 -20 -20 -20 -20 -20 -20 -20 -20 -20 -20 -8 -0 -0 -16 -2 -2 -1 -1 -2 -20 -20 -20 -15 -16 -20 -3 -3 -1 -1 -19 -19 4 4 -20 -3 1 -1 4 -10 -3
-20 -20 -20 -20 -20 -20 -20 -20 -20 -20 -20 -20 -20 -20 -20 -20 -20 -20 -20 -20 -20 -20 -4 -4 -4 -5 -20 -13 -2 -2 -0 -3 -4 0 -1 -20 -18 -20 -20 -20 -20 -20 -20 -20 -5 -11 -0 -1 -5 4 -5 -3 3 -20
-20 -20 -20 -20 -20 -20 -20 -20 -20 -20 -20 -20 -20 -20 -20 -20 -20 -20 -20 -20 -9 -1 -2 -3 -3 -16 -16 -20 -20 -19 -2 -16 -9 -18 -4 -8 -20 -20 -20 -20 -20 -12 -3 -1 -0 0 -3 -2 6 -17 -20 2 -20 -20
-20 -20 -20 -20 -20 -20 -20 -20 -20 -20 -20 -20 -20 -20 -20 -20 -20 -20 -20 -8 -1 2 1 -2 -13 -20 -20 -20 -6 -4 -13 -3 -20 -20 -20 -20 -20 -20 -20 -20 -20 -2 -3 -1 -3 5 2 5 -12 4 -20 -20 -20 -20
-20 -20 -20 -20 -20 -20 -20 -20 -20 -20 -20 -20 -20 -20 -20 -20 -20 -20 -20 -1 -2 2 -20 -20 -20 -20 -20 -20 -20 -20 -20 -20 -20 -20 -20 -20 -20 -20 -20 -20 -20 -17 2 3 -5 -1 -1 -3 1 -8 -6 -19 -20 -5
-20 -20 -20 -20 -20 -20 -20 -20 -20 -20 -20 -20 -20 -20 -20 -20 -20 -20 -20 -13 -5 -6 -7 -20 -20 -20 -20 -20 -20 -20 -20 -20 -20 -20 -20 -20 -20 -20 -20 -20 -20 -20 -1 0 -19 -3 -3 -3 -4 -2 -4 -19 -20 -19
-20 -20 -20 -20 -20 -20 -20 -20 -20 -20 -20 -20 -20 -20 -20 -20 -20 -20 -20 -20 -20 -15 -3 -20 -20 -20 -20 -20 -20 -20 -20 -20 -20 -20 -20 -20 -20 -20 -20 -20 -20 -20 -20 -20 2 -2 -1 -4 -5 -2 -1 -1 -2 -18
-20 -20 -20 -20 -20 -20 -20 -20 -20 -20 -20 -20 -20 -20 -20 -20 -20 -20 -20 -20 -20 -20 -20 -20 -20 -20 -20 -20 -20 -20 -20 -20 -20 -20 -20 -20 -20 -4 -3 -8 -9 -20 -18 3 -13 -1 3 -0 -20 -20 -9 -20 -18 -1
-20 -20 -20 -20 -20 -20 -20 -20 -20 -20 -20 -20 -20 -20 -20 -20 -20 -20 -20 -20 -20 -20 -20 -20 -20 -20 -20 -20 -20 -20 -20 -20 -20 -20 -20 -20 -20 -20 -20 -20 -20 7 7 -20 -6 7 4 -1 -20 -20 -20 -4 -20 -20
-20 -20 -20 -20 -20 -20 -20 -20 -20 -20 -20 -20 -20 -20 -20 -20 -20 -20 -20 -20 -20 -20 -20 -20 -20 -20 -20 -20 -20 -20 -20 -20 -20 -20 -20 -20 -20 -20 -20 -20 -20 -20 -20 -20 2 7 6 -7 8 6 -20 -20 -20 -20
-20 -20 -20 -20 -20 -20 -20 -20 -20 -20 -20 -20 -20 -20 -20 -20 -20 -20 -20 -20 -20 -20 -20 -20 -20 -20 -20 -20 -20 -20 -20 -20 -20 -20 -20 -20 -20 -20 -20 -20 -20 -20 -20 -20 -20 -20 -12 -19 -18 -20 -20 -20 -20 -20
-20 -20 -20 -20 -20 -20 -20 -20 -20 -20 -20 -20 -20 -20 -20 -20 -20 -20 -20 -20 -20 -20 -20 -20 -20 -20 -20 -20 -20 -20 -20 -20 -20 -20 -20 -20 -20 -11 -11 -20 -20 -20 -20 -20 -20 -20 -20 -20 -20 -20 -20 -20 -20 -20
-20 -20 -20 -20 -20 -20 -20 -20 -20 -20 -20 -20 -20 -20 -20 -20 -20 -20 -20 -20 -20 -20 -2 -20 -20 -20 -20 -20 -20 -20 5 -20 -20 -20 -18 3 8 1 -19 -20 -20 -19 -20 -20 -20 -20 -20 -20 -20 -20 -20 -20 -20 -20
-20 -20 -20 -20 -20 -20 -20 -20 -20 -20 -20 -20 -20 -20 -20 -20 -20 -20 -20 -20 -20 -20 -20 -20 -20 -20 -20 -20 -20 -20 -9 -20 -16 2 9 9 11 9 -20 -18 -20 -20 -20 -20 -20 -20 -20 -20 -20 -20 -20 -20 -20 -20
Wind_Speed
22 22 22 24 24 24 24 23 23 22 23 24 22 21 22 21 19 11 5 6 5 5 12 14 8 8 7 7 5 11 9 6 5 7 4 5 3 5 4 4 3 5 7 6 5 5 2 19 6 8 9 13 16 17
24 23 23 24 25 25 25 23 22 21 22 24 22 22 23 22 19 17 8 5 5 6 6 12 12 14 12 11 5 4 6 7 4 5 4 5 6 3 3 3 2 1 4 4 4 4 3 4 8 5 8 14 16 17
25 25 24 25 25 26 25 24 23 22 21 24 23 24 24 23 23 18 8 5 3 4 7 5 2 4 2 5 6 4 2 9 5 6 4 4 5 3 3 4 1 5 3 3 5 4 14 6 8 14 15 14 17 16
24 25 24 25 25 25 25 25 24 23 20 23 23 24 24 24 24 14 5 0 0 1 4 0 2 3 1 3 4 9 13 8 7 4 4 5 3 4 3 3 3 4 6 6 5 7 10 7 13 16 18 17 17 17
25 23 25 24 24 25 25 25 25 22 18 22 22 24 24 21 15 4 2 0 1 2 4 5 8 2 2 3 7 5 5 6 4 4 2 2 2 1 2 2 4 5 5 4 4 8 7 14 16 18 17 17 18 19
23 24 24 25 25 25 25 25 25 19 16 20 23 24 22 17 4 2 2 3 2 1 3 4 2 1 4 7 5 3 3 3 2 3 2 2 3 5 2 3 4 6 5 5 5 11 12 13 13 14 17 19 19 17
23 24 25 25 25 25 24 26 25 12 16 21 23 24 19 12 3 1 3 4 7 3 3 4 3 3 5 3 1 2 3 1 2 1 1 2 4 4 3 4 9 9 9 8 2 10 4 7 9 15 15 16 17 15
24 24 25 24 24 25 25 26 9 12 18 22 23 19 6 5 10 2 4 8 4 1 1 3 4 2 7 3 3 2 2 1 3 2 2 3 3 4 5 8 9 10 10 5 7 9 9 11 10 10 11 12 14 14
23 24 24 23 24 25 25 7 10 15 19 22 16 4 2 2 0 2 8 3 4 4 2 1 4 4 8 3 3 2 2 2 1 2 3 1 4 6 7 9 10 10 8 9 11 10 8 9 10 11 11 10 11 13
23 23 23 23 23 23 4 8 12 16 21 13 2 1 1 2 9 3 1 0 3 4 3 3 1 3 5 5 3 4 1 2 1 3 1 4 5 4 8 7 7 8 9 8 9 9 12 11 10 11 9 9 9 10
22 22 21 20 11 3 5 8 13 18 6 3 4 2 3 5 2 1 0 2 2 2 3 3 3 4 3 3 4 2 4 2 2 4 2 3 4 8 10 9 8 7 7 7 6 7 7 9 10 10 10 9 9 10
21 20 19 2 3 2 5 11 13 5 2 4 4 2 2 2 0 1 1 0 3 4 3 4 4 3 2 3 3 1 4 2 4 2 2 3 5 8 10 10 10 8 8 7 7 8 8 9 8 9 9 9 9 9
18 19 5 3 2 3 8 11 11 10 1 1 1 1 3 1 3 5 5 3 3 4 4 5 4 3 2 1 4 3 4 4 1 3 4 4 7 9 10 9 10 10 9 8 7 7 8 9 8 8 9 9 9 8
17 6 4 3 1 5 10 9 10 3 1 2 3 5 4 3 5 5 4 4 3 4 6 5 4 3 2 3 3 4 3 3 2 3 4 5 10 9 9 8 9 11 11 10 9 8 8 8 8 7 7 8 9 9
9 5 2 3 5 9 8 8 4 3 2 3 2 3 5 3 4 3 2 1 4 3 5 2 2 2 2 3 3 4 2 4 6 4 5 7 9 8 9 9 10 9 10 9 9 8 7 8 8 8 7 7 8 8
7 4 2 4 7 7 7 2 3 2 3 3 8 1 2 1 4 4 6 4 4 5 2 2 3 2 4 4 3 6 4 5 4 5 6 8 9 9 10 10 10 9 9 9 8 8 7 7 7 8 7 6 6 7
4 2 3 7 6 5 10 2 2 6 5 4 5 5 4 4 5 4 5 6 6 5 4 3 5 6 4 3 4 6 5 7 8 8 7 9 10 10 10 10 10 10 9 9 9 8 7 6 6 5 7 8 6 6
3 4 8 6 1 2 3 6 4 5 7 4 4 5 6 6 4 6 6 7 6 5 4 4 4 6 6 6 4 6 7 7 7 7 8 9 9 9 9 11 10 10 9 9 9 8 5 6 7 6 7 7 5 5
5 5 8 6 2 3 3 4 4 5 4 2 3 4 5 5 6 6 6 7 3 4 3 4 6 5 5 4 9 9 8 8 8 9 8 7 8 8 9 9 9 9 9 9 9 7 6 6 5 5 6 6 5 5
13 10 6 12 4 2 4 4 3 5 4 3 3 4 4 4 3 5 8 8 7 5 7 6 5 6 6 7 7 7 8 7 8 9 9 8 8 10 10 9 8 10 8 8 7 10 6 6 5 6 6 6 5 5
5 5 8 5 5 8 6 4 5 4 2 4 1 2 4 3 4 6 7 6 6 5 5 4 6 6 7 6 6 6 8 7 8 7 9 9 8 8 8 8 9 8 8 8 8 8 9 6 6 5 5 4 5 5
2 6 3 4 5 5 6 5 3 2 3 2 3 3 4 3 4 5 4 6 4 3 3 5 7 8 8 9 8 8 8 9 9 8 11 12 8 8 8 8 8 8 8 7 7 7 7 7 7 4 5 5 6 6
4 3 4 6 6 8 3 2 4 6 3 3 0 4 4 3 3 3 4 3 2 3 4 6 8 8 8 9 8 6 7 9 8 8 8 8 8 8 7 8 7 7 7 7 8 8 7 11 10 7 6 6 6 5
9 8 7 6 6 4 1 6 3 4 4 5 4 4 4 4 5 2 3 2 5 4 6 8 7 8 7 7 7 7 7 7 7 7 7 7 8 7 7 7 7 6 6 7 7 7 7 7 11 8 7 7 7 6
8 10 6 7 3 5 7 5 6 6 4 5 4 4 4 3 2 2 2 4 6 7 6 7 7 8 8 7 7 8 7 6 7 8 7 6 7 7 7 6 6 6 6 7 8 9 8 8 7 8 8 7 8 8
10 7 6 4 4 5 3 4 4 4 3 4 4 3 2 1 3 2 2 4 6 7 7 8 8 8 8 8 8 8 8 7 6 7 7 6 6 6 7 7 7 7 6 7 8 9 9 9 9 11 10 10 14 10
7 5 4 4 2 3 5 3 2 4 4 5 4 5 3 4 2 1 1 1 4 5 7 6 6 7 8 8 8 7 7 6 5 7 8 7 6 6 6 7 8 8 9 8 7 9 10 10 10 10 9 9 9 6
5 2 5 3 5 4 5 3 3 3 2 1 2 4 1 1 2 0 0 0 2 4 5 5 5 5 6 6 7 7 6 6 6 6 6 5 4 5 5 6 7 17 9 7 8 7 8 9 10 10 11 9 5 5
5 3 4 5 3 4 3 2 2 1 1 1 1 1 2 2 1 1 1 1 2 4 5 6 5 4 5 4 4 5 5 5 7 12 12 9 9 6 6 7 7 7 6 6 14 14 12 11 8 6 7 5 5 5
3 1 5 3 4 2 1 1 1 1 1 2 3 3 3 3 2 1 2 2 3 4 6 6 5 5 5 5 7 7 4 3 4 7 7 9 9 10 9 8 8 7 6 6 7 7 14 10 9 5 5 4 4 4
2 3 5 3 3 1 1 2 1 1 1 2 1 3 3 4 3 2 2 1 2 4 6 6 6 5 5 6 5 6 7 2 8 10 9 9 11 9 5 5 6 5 5 6 6 5 5 5 5 6 5 5 6 4
3 4 4 4 2 1 1 1 1 1 1 2 2 2 2 2 3 0 1 0 2 5 10 8 7 7 6 5 4 4 12 5 7 9 14 10 9 2 4 5 5 5 5 5 5 6 7 7 6 7 6 5 5 5
4 2 3 4 3 2 1 0 2 3 2 2 1 1 1 2 3 2 1 1 2 5 6 7 7 6 6 4 4 5 8 5 10 17 21 19 21 15 7 4 4 3 4 5 5 6 7 8 8 9 9 8 8 8
Wind_Direction
311 312 313 313 312 311 312 313 316 319 326 324 326 328 328 326 323 323 270 268 259 252 283 295 277 264 292 284 285 332 317 15 317 340 321 358 301 15 284 67 10 345 329 12 328 352 52 2 29 34 325 317 324 328
309 310 311 310 309 309 310 308 309 315 323 321 322 326 327 326 320 319 291 259 258 247 278 306 280 280 272 257 283 275 297 318 319 300 353 314 294 244 20 342 72 239 15 331 2 23 356 43 85 24 346 328 328 324
306 307 310 308 308 307 303 303 304 308 316 319 323 327 326 327 325 319 287 272 243 260 276 256 255 155 196 231 241 280 297 2 290 339 307 281 273 330 311 68 218 124 36 264 312 94 338 184 232 3 349 332 329 327
301 303 306 305 304 301 301 302 303 304 312 317 321 326 328 327 328 319 266 183 240 314 281 221 120 243 40 207 241 263 286 298 291 262 249 258 336 3 47 47 28 6 307 337 268 30 340 89 336 343 332 331 330 328
300 303 302 301 302 301 303 302 303 300 308 314 320 320 321 334 330 342 33 110 271 275 302 297 308 109 209 296 299 271 244 268 266 254 260 23 83 171 67 129 69 3 17 342 8 357 322 307 329 328 332 331 328 326
301 302 300 298 300 302 303 305 301 298 313 317 317 321 325 321 270 257 236 176 214 131 286 297 38 36 351 328 317 281 280 271 273 310 69 83 44 308 198 73 53 3 341 322 298 330 313 303 311 348 329 327 326 328
299 300 298 299 301 303 303 302 305 319 321 314 317 317 322 300 204 270 9 351 320 301 266 294 283 62 341 304 293 273 295 42 335 68 61 61 44 7 19 58 358 347 336 313 348 337 315 1 329 323 320 324 324 323
295 297 297 299 302 303 301 304 330 327 313 313 316 325 325 97 112 134 25 353 319 237 264 290 286 247 9 330 316 354 298 178 39 75 60 57 62 44 63 359 350 348 339 352 324 328 301 306 307 323 327 331 334 336
293 294 296 300 303 303 305 344 332 315 313 318 331 345 101 45 17 43 0 36 40 18 307 321 315 334 352 13 287 290 336 247 70 77 70 328 59 46 356 343 346 344 334 312 318 310 309 316 324 333 339 341 331 326
295 296 299 303 304 311 9 333 320 322 323 337 345 13 97 36 315 296 244 32 45 14 15 56 246 316 342 355 300 315 245 344 216 67 113 68 89 86 13 356 340 337 332 326 322 333 334 330 335 331 327 317 318 317
297 300 303 302 312 39 334 337 332 341 347 3 16 18 335 320 232 15 58 330 0 114 19 26 18 326 55 311 317 9 325 296 250 74 319 94 88 17 358 355 354 342 337 332 314 304 307 306 315 324 326 333 332 329
301 305 301 21 56 15 357 342 349 355 333 316 305 346 320 343 232 255 33 223 16 36 27 339 356 328 335 308 276 322 289 273 50 325 76 84 50 7 359 355 351 347 341 339 338 327 326 327 327 323 326 333 338 329
302 301 123 113 125 2 349 351 352 327 342 112 97 292 319 49 40 10 0 52 13 360 16 349 327 353 292 261 265 292 281 29 246 41 62 59 21 5 352 352 349 346 346 344 346 347 339 334 334 335 330 334 334 343
308 145 139 174 84 349 359 15 334 342 9 32 5 358 6 39 54 28 4 7 35 330 346 334 290 337 352 290 337 289 31 295 56 62 56 25 9 351 344 352 341 345 344 341 341 342 342 341 335 337 339 334 337 346
143 142 119 108 1 359 16 350 17 24 21 50 338 30 40 88 56 40 2 281 33 326 328 270 238 285 357 297 5 303 347 64 25 36 4 355 354 344 345 349 341 343 340 340 340 338 339 341 338 338 344 341 347 348
136 107 78 18 14 25 1 60 35 72 60 47 35 37 32 225 65 37 7 18 15 332 269 240 311 305 47 336 17 17 0 37 21 346 341 343 346 339 342 334 337 332 338 336 339 332 334 339 337 330 326 345 342 355
117 66 2 3 42 57 29 73 64 46 55 45 53 33 14 65 42 29 3 357 337 302 4 328 16 8 284 24 48 14 18 344 337 326 344 343 338 336 331 327 335 329 339 337 333 330 323 332 321 333 347 353 340 354
72 42 31 349 5 70 37 23 77 61 67 32 61 27 61 27 10 34 6 1 351 0 359 38 334 28 22 16 27 357 335 329 326 332 326 333 333 330 330 328 329 319 338 336 329 324 340 343 340 347 335 340 341 349
91 64 21 14 53 84 65 46 3 86 61 57 89 62 65 84 57 27 12 8 22 14 50 34 38 27 7 8 334 325 329 328 328 324 322 338 331 321 324 329 321 337 332 330 330 324 337 336 336 338 332 342 355 354
89 53 38 35 27 75 79 45 351 72 69 61 36 41 55 47 19 17 26 15 23 51 40 42 16 346 329 325 325 315 317 331 322 323 328 334 334 342 336 333 334 332 326 332 326 341 345 346 354 346 334 2 8 358
67 7 17 44 47 56 69 10 62 45 83 71 10 20 74 61 40 26 20 2 47 38 38 18 347 338 330 314 318 321 322 333 324 323 315 319 339 331 331 333 339 333 335 330 333 330 345 341 334 338 343 356 5 356
42 17 57 19 77 65 78 20 45 39 50 69 68 26 41 45 33 21 325 41 54 27 10 340 339 332 327 333 334 329 329 326 324 324 332 330 328 332 330 332 335 334 328 332 333 328 322 326 325 19 353 360 354 343
60 42 52 19 77 44 21 334 55 10 44 31 295 53 40 42 23 304 76 54 67 29 356 346 328 320 319 321 323 336 341 336 331 332 329 326 321 320 330 326 331 324 326 338 341 337 344 341 333 355 355 352 344 338
41 47 41 46 29 61 24 35 37 39 45 22 16 51 30 355 319 59 74 46 352 340 355 343 328 327 331 336 337 332 342 334 327 324 332 328 324 331 324 319 322 325 324 341 336 334 337 337 337 335 339 336 331 323
68 4 27 26 19 50 40 30 7 31 36 359 26 33 15 316 38 51 45 14 347 345 347 334 335 336 328 321 325 327 334 339 330 320 317 332 324 318 324 326 332 333 333 350 333 333 334 332 333 336 331 321 307 306
71 355 43 17 24 60 12 62 35 19 17 29 28 333 299 357 48 19 4 350 347 341 340 335 331 326 321 328 322 322 324 330 322 302 314 334 316 311 314 321 326 332 329 334 318 328 323 338 334 332 327 332 329 340
84 51 46 46 69 94 86 72 67 60 42 18 355 342 1 28 320 314 12 69 321 341 329 320 315 317 319 320 320 322 324 324 311 294 296 295 293 293 295 299 311 308 299 303 322 308 322 323 319 313 309 306 306 312
97 59 90 13 63 26 103 64 52 53 9 354 273 14 44 347 286 47 244 70 317 321 312 304 301 308 316 317 316 318 320 320 310 300 310 309 308 302 288 293 299 307 330 312 299 315 309 303 292 292 288 290 317 328
77 78 92 53 44 53 50 94 135 137 60 246 282 285 268 236 293 260 237 298 327 316 319 321 320 325 312 321 325 329 320 329 337 336 336 327 324 317 322 317 306 303 300 299 310 320 309 288 300 323 345 314 296 300
86 52 95 81 83 74 93 322 71 48 271 282 299 286 253 249 250 259 260 275 314 324 316 304 298 325 320 329 328 334 334 342 337 326 311 303 298 299 304 307 304 303 308 310 309 311 320 329 322 319 320 312 302 295
112 111 86 64 99 96 64 2 313 264 289 264 244 257 280 320 302 223 254 287 308 306 311 321 330 330 326 329 335 324 320 9 332 313 293 295 292 291 305 305 307 312 321 339 337 330 332 326 327 322 322 326 316 339
56 59 122 116 123 117 201 338 357 276 267 265 222 223 268 261 277 231 108 324 308 323 331 337 327 331 337 336 326 317 331 344 320 306 297 298 326 96 359 324 340 27 355 351 350 353 351 352 354 358 354 1 358 7
89 84 65 101 105 160 147 193 18 319 247 264 274 321 291 294 268 311 134 211 303 317 317 319 319 324 326 322 315 325 346 315 311 343 333 347 351 4 10 344 64 25 14 15 11 3 7 8 14 17 21 22 25 27